Погода в Кривоносово

Россия / Ивановская область     56°40′40″N   41°15′12″E
темп.,
°C
ветер,
м/с
пор.,
м/с
влажн.,
%
обл.,
%
осадки,
мм/ч
давл.,
гПа
погр.,
м
15 июня, вт
вт1500:00+15сз11855 0.0 101511
03:00+14ссв11905 0.0 101511
06:00+17ссв11855 0.0 101593
09:00+23вюв11615 0.0 1014651
12:00+26юв12470 0.0 10131766
15:00+27ю234229 0.0 10112246
18:00+22зсз127287 0.0 101049
21:00+18з11851 0.3 101011
16 июня, ср
ср1600:00+16з119158 0.0 100912
03:00+15зсз009419 0.1 100911
06:00+18зюз129198 0.3 100990
09:00+17ссз259696 1.3 1010204
12:00+22ссз5667100 0.0 1011957
15:00+22ссз676417 0.2 10131191
18:00+20ссз57530 0.1 1014817
21:00+14сз311655 0.1 1016275
17 июня, чт
чт1700:00+12ссз3865100 0.0 1018143
03:00+11ссз39685 0.0 1020165
06:00+13ссз310595 0.0 1021356
09:00+17ссз48434 0.0 1022905
12:00+21с48410 0.0 10231498
15:00+22ссз58420 0.0 10232012
18:00+21ссз375230 0.0 10241498
21:00+15з22730 0.0 102422
18 июня, пт
пт1800:00+13з22825 0.0 102531
03:00+12зсз11935 0.0 102610
06:00+15з12787 0.0 1027121
09:00+22зсз11553 0.0 1027577
12:00+26зсз134035 0.0 10261823
15:00+26зюз333953 0.0 10261990
18:00+24юз3658100 0.0 1025465
21:00+18юз22800 0.0 102540
19 июня, сб
сб1900:00+16зюз37835 0.0 1026120
03:00+15зюз39900 0.0 1026158
06:00+18зюз310790 0.0 1027291
09:00+24зюз57550 0.0 1026810
12:00+27зюз57460 0.0 10251727
15:00+27зюз57462 0.0 10241939
18:00+26зюз465618 0.0 10231098
21:00+20зюз36810 0.0 1023118